Location: Southern View
(39.7573°N, 89.6537°W)
Time: 20:10:44
(UTC+00:00)

Daily predictions for brighter satellites

Satellite Brightness Start Highest point End
(mag) Time Altitude Azimuth Time Altitude Azimuth Time Altitude Azimuth
Meteor 1-4 Rocket 2.9 12:10:47 10° NNW 12:14:03 40° W 12:17:17 10° SSW
USA 234 3.5 12:08:00 10° NE 12:14:15 50° NW 12:20:31 10° WSW
Cosmos 2084 3.7 12:10:39 10° NW 12:15:05 57° WSW 12:19:28 10° SSE
Cosmos 1937 Rocket 4.0 12:10:39 10° S 12:15:42 64° ESE 12:20:50 10° NNE
Cosmos 1515 Rocket 3.6 12:11:44 10° NNW 12:16:10 72° W 12:20:36 10° S
H-2A R/B 2.2 12:13:35 10° N 12:17:26 62° WNW 12:21:12 10° SSW
ATLAS 2AS CENTAUR R/B 3.1 12:09:51 10° SW 12:17:41 62° NW 12:25:31 10° NNE
FALCON 9 DEB 4.0 12:15:22 10° SSW 12:18:28 49° SE 12:21:36 10° ENE
Cosmos 1862 3.5 12:15:06 10° S 12:19:08 81° E 12:23:12 10° N
Okean O Rocket 2.0 12:15:07 10° NNE 12:19:33 70° ESE 12:23:58 10° S
USA 276 4.4 12:19:10 10° WSW 12:20:31 12° SW 12:21:53 10° SSW
ATLAS CENTAUR R/B 3.6 12:19:41 10° N 12:22:19 18° NE 12:25:02 10° E
CENTAUR R/B 3.5 12:14:35 10° NW 12:22:40 53° WSW 12:31:12 10° S
H-2A R/B 3.7 12:19:41 10° NNW 12:23:02 28° WNW 12:26:23 10° SW
Meteor 2-6 Rocket 4.3 12:17:45 10° N 12:23:10 82° E 12:28:35 10° S
PAYLOAD B 4.2 12:21:25 10° N 12:26:55 70° WNW 12:32:22 10° SSW
USA 215 3.4 22:56:09 10° NE 23:02:41 69° SE 23:09:11 10° SW
Cosmos 2237 Rocket 2.4 23:00:49 10° S 23:06:13 52° ESE 23:11:40 10° NNE
H-2A R/B 2.6 23:02:30 10° SSE 23:06:54 84° ENE 23:11:11 10° NNW
COSMO-SKYMED 1 4.0 23:05:26 10° NE 23:08:28 18° E 23:11:28 10° SE
Cosmos 1743 Rocket 3.6 23:04:26 10° N 23:08:53 63° E 23:13:16 10° SSE
Okean O Rocket 1.7 23:10:39 10° SSE 23:14:52 53° ENE 23:19:08 10° N
Cosmos 1408 Rocket 4.5 23:10:49 10° NNW 23:15:06 54° W 23:19:19 10° S
YAOGAN 6 2.6 23:11:54 10° SSE 23:15:35 88° W 23:19:15 10° NNW
Cosmos 405 Rocket 2.7 23:13:05 10° N 23:16:58 64° E 23:20:54 10° SSE
Cosmos 1842 Rocket 4.4 23:13:37 10° SSW 23:17:50 53° W 23:22:05 10° N
Envisat 3.3 23:13:17 10° S 23:18:21 73° WSW 23:23:27 10° NNW
Sich 1 3.8 23:16:07 10° NNE 23:19:58 29° ENE 23:23:47 10° SE
CORIOLIS 4.2 23:17:28 10° SSE 23:22:47 64° ENE 23:28:09 10° N
Cosmos 1980 3.7 23:18:29 10° SSW 23:24:09 80° ESE 23:29:51 10° NNE
H-2A R/B 3.7 23:25:29 12° ENE 23:26:40 12° ENE 23:28:47 10° NE
Cosmos 1805 Rocket 3.7 23:24:45 10° N 23:29:07 50° E 23:33:25 10° SSE
Cosmos 389 Rocket 2.8 23:29:38 10° SSE 23:32:53 41° E 23:36:09 10° NNE
USA 267 3.9 23:28:00 10° E 23:33:47 35° NNE 23:39:33 10° NW
Cosmos 1151 Rocket 4.1 23:31:08 10° SE 23:34:31 23° E 23:37:28 12° NE
Cosmos 1666 Rocket 4.4 23:31:21 10° NNE 23:35:07 27° ENE 23:38:53 10° SE
Cosmos 1606 2.8 23:33:42 10° S 23:37:30 54° E 23:41:19 10° NNE
SMAP 3.3 23:32:56 10° S 23:37:35 77° WSW 23:42:15 10° NNW
Nadezhda 1 Rocket 4.4 23:37:29 10° SSW 23:43:45 68° W 23:50:09 10° N
BREEZE-M DEB (TANK) 2.6 23:43:41 10° WSW 23:46:30 40° NNW 23:47:24 24° NNE
SL-16 R/B 2.5 23:48:12 10° S 23:53:31 44° ESE 23:57:37 17° NE
Cosmos 1943 Rocket 3.5 23:50:40 10° N 23:54:14 18° NE 23:54:14 18° NE
H-2A R/B 4.0 23:51:23 10° N 23:54:58 28° WNW 23:58:36 10° SW
Lacrosse 5 rocket 2.0 23:51:58 10° S 23:55:10 28° SE 23:55:53 26° ESE
Abrixas rocket 1.7 23:52:26 10° NW 23:55:11 62° NNE 23:55:50 43° E
